Location: Alafon
(8.4500°N, 4.2333°E)
Time: 16:35:25
(UTC+00:00)

SR - Pass Details

Date: 09 August 2021
Orbit: 581 x 874 km, 66.7° (Epoch: 18 September)

Event Time Altitude Azimuth Distance (km) Brightness Sun altitude
Rises 02:01:27 0° 187° (S) 3,430 - -49.1°
Reaches altitude 10° 02:04:02 10° 181° (S) 2,508 - -48.6°
Maximum altitude 02:09:36 45° 109° (ESE) 1,165 - -47.5°
Exits shadow 02:14:51 11° 38° (NE) 2,395 ? -46.4°
Drops below altitude 10° 02:15:07 10° 38° (NE) 2,488 ? -46.4°
Sets 02:17:38 0° 32° (NNE) 3,400 ? -45.8°
